Location: Unspecified
(0.0000°N, 0.0000°E)
Time: 05:59:44
(UTC+00:00)

ISS - Pass Details

Date: 14 October 2019
Orbit: 411 x 421 km, 51.6° (Epoch: 14 October)

Event Time Altitude Azimuth Distance (km) Brightness Sun altitude
Rises 19:26:36 0° 307° (NW) 2,325 0.6 -24.9°
Reaches altitude 10° 19:28:52 10° 295° (WNW) 1,468 -0.3 -25.4°
Enters shadow 19:31:28 27° 243° (WSW) 830 -1.7 -26.1°
